TimeEET,TemperatureF,Dew PointF,Humidity,Sea Level PressureIn,VisibilityMPH,Wind Direction,Wind SpeedMPH,Gust SpeedMPH,PrecipitationIn,Events,Conditions,WindDirDegrees,DateUTC
12:20 AM,55.4,53.6,94,29.68,6.2,South,11.5,23.0,N/A,Rain,Light Rain,180,2013-01-18 22:20:00
12:50 AM,55.4,55.4,100,29.68,6.2,SW,9.2,20.7,N/A,Rain,Light Rain,230,2013-01-18 22:50:00
1:20 AM,55.4,55.4,100,29.68,6.2,SSW,6.9,18.4,N/A,Rain,Light Rain,200,2013-01-18 23:20:00
1:50 AM,55.4,53.6,94,29.68,6.2,South,4.6,-,N/A,,Overcast,180,2013-01-18 23:50:00
2:00 AM,55,54,96,29.70,6,South,4.6,,,Rain,Light Rain,180,2013-01-19 00:00:00
2:20 AM,55.4,53.6,94,29.71,6.2,South,4.6,-,N/A,,Overcast,180,2013-01-19 00:20:00
2:50 AM,55.4,51.8,88,29.71,6.2,SSE,6.9,-,N/A,,Overcast,150,2013-01-19 00:50:00
3:50 AM,55.4,55.4,100,29.71,6.2,SSW,6.9,-,N/A,Rain-Thunderstorm,Light Thunderstorms and Rain,200,2013-01-19 01:50:00
4:20 AM,55.4,55.4,100,29.71,6.2,West,18.4,-,N/A,Rain-Thunderstorm,Light Thunderstorms and Rain,260,2013-01-19 02:20:00
4:50 AM,53.6,53.6,100,29.71,6.2,SW,12.7,-,N/A,Rain,Light Rain,230,2013-01-19 02:50:00
5:20 AM,53.6,53.6,100,29.71,6.2,SSW,6.9,-,N/A,,Overcast,210,2013-01-19 03:20:00
5:50 AM,53.6,51.8,94,29.71,6.2,South,4.6,-,N/A,,Scattered Clouds,190,2013-01-19 03:50:00
6:20 AM,53.6,51.8,94,29.71,6.2,South,4.6,-,N/A,,Scattered Clouds,190,2013-01-19 04:20:00
6:50 AM,53.6,50.0,88,29.74,6.2,South,5.8,-,N/A,,Scattered Clouds,170,2013-01-19 04:50:00
7:20 AM,53.6,50.0,88,29.74,6.2,South,5.8,-,N/A,,Mostly Cloudy,170,2013-01-19 05:20:00
7:50 AM,55.4,46.4,72,29.74,6.2,SSW,6.9,-,N/A,,Scattered Clouds,200,2013-01-19 05:50:00
8:00 AM,55,47,66,29.76,6,SSW,6.9,,,,Partly Cloudy,200,2013-01-19 06:00:00
8:20 AM,55.4,46.4,72,29.74,6.2,SSW,6.9,-,N/A,,Scattered Clouds,200,2013-01-19 06:20:00
8:50 AM,57.2,46.4,67,29.77,6.2,South,6.9,-,N/A,,Scattered Clouds,190,2013-01-19 06:50:00
9:20 AM,57.2,46.4,67,29.77,6.2,SSW,6.9,-,N/A,,Scattered Clouds,200,2013-01-19 07:20:00
9:50 AM,59.0,46.4,63,29.77,6.2,SSW,11.5,-,N/A,,Scattered Clouds,210,2013-01-19 07:50:00
10:20 AM,60.8,48.2,63,29.77,6.2,SW,11.5,-,N/A,,Scattered Clouds,220,2013-01-19 08:20:00
10:50 AM,60.8,46.4,59,29.77,6.2,SW,11.5,-,N/A,,Mostly Cloudy,220,2013-01-19 08:50:00
11:20 AM,57.2,50.0,77,29.80,5.0,South,9.2,-,N/A,Rain,Light Rain,190,2013-01-19 09:20:00
11:50 AM,57.2,51.8,82,29.77,6.2,SW,11.5,-,N/A,,Scattered Clouds,230,2013-01-19 09:50:00
12:20 PM,57.2,51.8,82,29.77,6.2,SW,11.5,-,N/A,,Scattered Clouds,220,2013-01-19 10:20:00
12:50 PM,59.0,51.8,77,29.77,6.2,SW,11.5,-,N/A,,Mostly Cloudy,220,2013-01-19 10:50:00
1:20 PM,59.0,51.8,77,29.77,6.2,WSW,16.1,-,N/A,,Mostly Cloudy,250,2013-01-19 11:20:00
1:50 PM,57.2,51.8,82,29.77,5.6,SW,15.0,34.5,N/A,Rain,Light Rain,230,2013-01-19 11:50:00
2:00 PM,57,53,80,29.78,6,SW,15.0,,,Rain,Light Rain,230,2013-01-19 12:00:00
2:20 PM,57.2,51.8,82,29.77,5.6,West,26.5,-,N/A,Rain,Light Rain,260,2013-01-19 12:20:00
2:50 PM,55.4,53.6,94,29.74,5.6,SW,13.8,-,N/A,,Mostly Cloudy,220,2013-01-19 12:50:00
3:20 PM,55.4,53.6,94,29.74,6.2,West,19.6,-,N/A,,Scattered Clouds,270,2013-01-19 13:20:00
3:50 PM,57.2,51.8,82,29.80,6.2,WSW,16.1,27.6,N/A,,Scattered Clouds,240,2013-01-19 13:50:00
4:20 PM,57.2,51.8,82,29.80,6.2,SW,18.4,-,N/A,,Scattered Clouds,230,2013-01-19 14:20:00
4:50 PM,59.0,44.6,59,29.83,6.2,WSW,19.6,-,N/A,,Scattered Clouds,240,2013-01-19 14:50:00
5:20 PM,59.0,44.6,59,29.83,6.2,WSW,19.6,-,N/A,,Scattered Clouds,240,2013-01-19 15:20:00
5:50 PM,59.0,44.6,59,29.83,6.2,WSW,18.4,-,N/A,,Scattered Clouds,250,2013-01-19 15:50:00
6:20 PM,59.0,44.6,59,29.83,6.2,WSW,18.4,-,N/A,,Scattered Clouds,240,2013-01-19 16:20:00
6:50 PM,59.0,44.6,59,29.92,6.2,WSW,15.0,-,N/A,,Scattered Clouds,250,2013-01-19 16:50:00
7:20 PM,59.0,44.6,59,29.89,6.2,WSW,13.8,-,N/A,,Scattered Clouds,240,2013-01-19 17:20:00
7:50 PM,59.0,44.6,59,29.89,6.2,WSW,12.7,-,N/A,,Scattered Clouds,240,2013-01-19 17:50:00
8:00 PM,58,44,50,29.91,6,WSW,12.7,,,,Partly Cloudy,240,2013-01-19 18:00:00
8:20 PM,59.0,44.6,59,29.89,6.2,WSW,11.5,-,N/A,,Scattered Clouds,240,2013-01-19 18:20:00
8:50 PM,57.2,46.4,67,29.92,6.2,SW,6.9,-,N/A,,Scattered Clouds,220,2013-01-19 18:50:00
9:20 PM,57.2,46.4,67,29.92,6.2,SSW,4.6,-,N/A,,Scattered Clouds,200,2013-01-19 19:20:00
9:50 PM,57.2,46.4,67,29.92,6.2,SSW,5.8,-,N/A,,Mostly Cloudy,200,2013-01-19 19:50:00
10:20 PM,57.2,46.4,67,29.92,6.2,SSW,4.6,-,N/A,,Mostly Cloudy,210,2013-01-19 20:20:00
10:50 PM,57.2,46.4,67,29.92,6.2,SSW,4.6,-,N/A,,Mostly Cloudy,200,2013-01-19 20:50:00
11:20 PM,57.2,46.4,67,29.92,6.2,SSW,5.8,-,N/A,,Mostly Cloudy,200,2013-01-19 21:20:00
11:50 PM,57.2,46.4,67,29.95,6.2,SSW,5.8,-,N/A,,Mostly Cloudy,200,2013-01-19 21:50:00